| time (UTC) | temp F | wind direction | speed MPH | gust MPH | rain 1hr in | rain 24hr in | rain mn in | humidity % | barometer mb |
| 20260503235112 | 73 | 150 | 1.0 | 4.0 | 0.00 | 7.39 | 0.00 | 72 | 1015.4 |
| 20260503234941 | 73 | 178 | 1.0 | 4.0 | 0.00 | 7.41 | 0.00 | 72 | 1015.4 |
| 20260503234602 | 73 | 67 | 2.0 | 6.0 | 0.00 | 7.44 | 0.00 | 73 | 1015.3 |
| 20260503234441 | 73 | 29 | 3.0 | 7.0 | 0.00 | 7.46 | 0.00 | 74 | 1015.2 |
| 20260503234052 | 73 | 255 | 3.0 | 9.0 | 0.00 | 7.49 | 0.00 | 73 | 1015.2 |
| 20260503233940 | 73 | 271 | 6.0 | 9.0 | 0.00 | 7.51 | 0.00 | 73 | 1015.1 |
| 20260503233542 | 73 | 264 | 0.0 | 5.0 | 0.00 | 7.54 | 0.00 | 73 | 1014.9 |
| 20260503233440 | 73 | 39 | 1.0 | 5.0 | 0.00 | 7.58 | 0.00 | 73 | 1015.0 |
| 20260503233032 | 73 | 92 | 1.0 | 9.0 | 0.00 | 7.59 | 0.00 | 73 | 1015.0 |
| 20260503232940 | 73 | 31 | 2.0 | 9.0 | 0.00 | 7.60 | 0.00 | 73 | 1015.0 |
| 20260503232521 | 73 | 45 | 2.0 | 4.0 | 0.00 | 7.60 | 0.00 | 74 | 1014.9 |
| 20260503232440 | 73 | 79 | 1.0 | 5.0 | 0.00 | 7.61 | 0.00 | 74 | 1014.8 |
| 20260503232012 | 73 | 75 | 2.0 | 12.0 | 0.00 | 7.62 | 0.00 | 74 | 1014.8 |
| 20260503231940 | 73 | 53 | 0.0 | 13.0 | 0.00 | 7.62 | 0.00 | 74 | 1014.8 |
| 20260503231502 | 72 | 80 | 8.0 | 14.0 | 0.00 | 7.71 | 0.00 | 75 | 1014.6 |
| 20260503231441 | 72 | 100 | 7.0 | 14.0 | 0.00 | 7.71 | 0.00 | 75 | 1014.5 |
| 20260503230951 | 72 | 20 | 3.0 | 10.0 | 0.00 | 7.80 | 0.00 | 76 | 1014.6 |
| 20260503230940 | 72 | 47 | 4.0 | 10.0 | 0.00 | 7.80 | 0.00 | 76 | 1014.5 |
| 20260503230440 | 72 | 64 | 1.0 | 7.0 | 0.00 | 7.88 | 0.00 | 76 | 1014.6 |
| 20260503225941 | 72 | 39 | 3.0 | 6.0 | 0.00 | 7.94 | 0.00 | 77 | 1014.3 |
| 20260503225931 | 72 | 64 | 4.0 | 6.0 | 0.00 | 7.94 | 0.00 | 77 | 1014.3 |
| 20260503225440 | 71 | 48 | 2.0 | 6.0 | 0.00 | 8.01 | 0.00 | 78 | 1014.2 |
| 20260503225421 | 71 | 64 | 2.0 | 6.0 | 0.00 | 8.01 | 0.00 | 78 | 1014.3 |
| 20260503224940 | 72 | 16 | 1.0 | 3.0 | 0.00 | 8.12 | 0.00 | 79 | 1014.3 |
| 20260503224911 | 72 | 61 | 1.0 | 3.0 | 0.00 | 8.12 | 0.00 | 79 | 1014.3 |
| 20260503224440 | 71 | 60 | 1.0 | 3.0 | 0.00 | 8.22 | 0.00 | 79 | 1014.2 |
| 20260503224402 | 71 | 193 | 1.0 | 3.0 | 0.00 | 8.22 | 0.00 | 79 | 1014.1 |
| 20260503223939 | 71 | 35 | 0.0 | 1.0 | 0.00 | 8.27 | 0.00 | 80 | 1014.2 |
| 20260503223851 | 71 | 41 | 0.0 | 1.0 | 0.00 | 8.29 | 0.00 | 80 | 1014.2 |
| 20260503223440 | 71 | 48 | 1.0 | 3.0 | 0.00 | 8.35 | 0.00 | 80 | 1014.1 |
| 20260503223341 | 71 | 55 | 1.0 | 3.0 | 0.00 | 8.36 | 0.00 | 80 | 1014.1 |
| 20260503222940 | 71 | 26 | 1.0 | 6.0 | 0.00 | 8.40 | 0.00 | 79 | 1013.9 |
| 20260503222832 | 71 | 42 | 1.0 | 8.0 | 0.00 | 8.43 | 0.00 | 80 | 1013.9 |
| 20260503222439 | 71 | 58 | 4.0 | 8.0 | 0.00 | 8.45 | 0.00 | 81 | 1013.9 |
| 20260503222321 | 71 | 66 | 3.0 | 8.0 | 0.00 | 8.46 | 0.00 | 81 | 1013.9 |
| 20260503221940 | 70 | 119 | 4.0 | 11.0 | 0.00 | 8.52 | 0.00 | 82 | 1013.9 |
| 20260503221811 | 70 | 63 | 4.0 | 11.0 | 0.00 | 8.53 | 0.00 | 83 | 1013.8 |
| 20260503221440 | 70 | 57 | 1.0 | 3.0 | 0.00 | 8.57 | 0.00 | 84 | 1013.8 |
| 20260503221301 | 70 | 46 | 0.0 | 2.0 | 0.00 | 8.58 | 0.00 | 84 | 1013.7 |
| 20260503220939 | 70 | 30 | 0.0 | 2.0 | 0.00 | 8.63 | 0.00 | 84 | 1013.6 |
| 20260503220751 | 70 | 67 | 0.0 | 1.0 | 0.00 | 8.64 | 0.00 | 84 | 1013.6 |
| 20260503220440 | 70 | 48 | 0.0 | 2.0 | 0.00 | 8.64 | 0.00 | 84 | 1013.5 |
| 20260503220241 | 70 | 45 | 1.0 | 2.0 | 0.00 | 8.65 | 0.00 | 84 | 1013.4 |
| 20260503215940 | 70 | 19 | 0.0 | 2.0 | 0.00 | 8.69 | 0.00 | 84 | 1013.3 |
| 20260503215731 | 70 | 52 | 0.0 | 1.0 | 0.00 | 8.69 | 0.00 | 85 | 1013.3 |
| 20260503215439 | 70 | 4 | 0.0 | 1.0 | 0.00 | 8.71 | 0.00 | 85 | 1013.3 |
| 20260503215221 | 70 | 17 | 0.0 | 1.0 | 0.00 | 8.72 | 0.00 | 85 | 1013.2 |
| 20260503214940 | 70 | 37 | 1.0 | 1.0 | 0.00 | 8.75 | 0.00 | 85 | 1013.3 |
| 20260503214711 | 70 | 6 | 0.0 | 1.0 | 0.00 | 8.75 | 0.00 | 85 | 1013.3 |
| 20260503214439 | 70 | 31 | 0.0 | 1.0 | 0.00 | 8.75 | 0.00 | 85 | 1013.3 |
| 20260503214201 | 70 | 15 | 1.0 | 2.0 | 0.00 | 8.79 | 0.00 | 84 | 1013.1 |
| 20260503213939 | 70 | 120 | 0.0 | 2.0 | 0.00 | 8.79 | 0.00 | 85 | 1013.0 |
| 20260503213651 | 70 | 39 | 0.0 | 2.0 | 0.00 | 8.84 | 0.00 | 85 | 1013.0 |
| 20260503213440 | 70 | 21 | 0.0 | 2.0 | 0.00 | 8.85 | 0.00 | 85 | 1012.9 |
| 20260503213140 | 70 | 24 | 1.0 | 2.0 | 0.00 | 8.87 | 0.00 | 85 | 1012.8 |
| 20260503212939 | 70 | 96 | 1.0 | 2.0 | 0.00 | 8.89 | 0.00 | 85 | 1012.8 |
| 20260503212631 | 70 | 87 | 0.0 | 5.0 | 0.00 | 8.91 | 0.00 | 86 | 1012.8 |
| 20260503212439 | 70 | 59 | 3.0 | 5.0 | 0.00 | 8.96 | 0.00 | 86 | 1012.7 |
| 20260503212121 | 70 | 49 | 1.0 | 2.0 | 0.00 | 8.97 | 0.00 | 87 | 1012.7 |
| 20260503211940 | 70 | 23 | 1.0 | 3.0 | 0.00 | 8.97 | 0.00 | 87 | 1012.7 |
| 20260503211610 | 70 | 35 | 1.0 | 4.0 | 0.00 | 9.02 | 0.00 | 87 | 1012.8 |
| 20260503211439 | 70 | 101 | 3.0 | 4.0 | 0.00 | 9.02 | 0.00 | 87 | 1012.7 |
| 20260503211101 | 70 | 54 | 2.0 | 10.0 | 0.00 | 9.04 | 0.00 | 88 | 1012.5 |
| 20260503210939 | 70 | 48 | 6.0 | 10.0 | 0.00 | 9.07 | 0.00 | 87 | 1012.4 |
| 20260503210550 | 70 | 40 | 1.0 | 2.0 | 0.00 | 9.09 | 0.00 | 88 | 1012.4 |
| 20260503210440 | 70 | 359 | 0.0 | 1.0 | 0.00 | 9.10 | 0.00 | 88 | 1012.4 |
| 20260503210040 | 70 | 57 | 0.0 | 1.0 | 0.00 | 9.12 | 0.00 | 88 | 1012.5 |
| 20260503205939 | 70 | 56 | 0.0 | 0.0 | 0.00 | 9.14 | 0.00 | 88 | 1012.4 |
| 20260503205531 | 70 | 360 | 0.0 | 1.0 | 0.00 | 9.20 | 0.00 | 88 | 1012.3 |
| 20260503205439 | 70 | 344 | 0.0 | 1.0 | 0.00 | 9.20 | 0.00 | 88 | 1012.3 |
| 20260503205021 | 70 | 46 | 0.0 | 1.0 | 0.00 | 9.23 | 0.00 | 88 | 1012.1 |
| 20260503204940 | 70 | 49 | 0.0 | 1.0 | 0.00 | 9.23 | 0.00 | 88 | 1012.1 |
| 20260503204510 | 70 | 48 | 0.0 | 2.0 | 0.00 | 9.28 | 0.00 | 88 | 1012.2 |
| 20260503204439 | 70 | 53 | 0.0 | 2.0 | 0.00 | 9.28 | 0.00 | 88 | 1012.1 |
| 20260503204000 | 71 | 30 | 0.0 | 1.0 | 0.00 | 9.35 | 0.00 | 88 | 1012.1 |
| 20260503203939 | 71 | 18 | 0.0 | 1.0 | 0.00 | 9.35 | 0.00 | 88 | 1012.1 |
| 20260503203451 | 71 | 29 | 0.0 | 1.0 | 0.00 | 9.42 | 0.00 | 88 | 1011.9 |
| 20260503203438 | 71 | 42 | 0.0 | 1.0 | 0.00 | 9.42 | 0.00 | 88 | 1011.9 |
| 20260503202939 | 71 | 9 | 0.0 | 1.0 | 0.00 | 9.48 | 0.00 | 88 | 1012.1 |
| 20260503202439 | 71 | 82 | 0.0 | 1.0 | 0.00 | 9.51 | 0.00 | 88 | 1011.9 |
| 20260503202430 | 71 | 71 | 0.0 | 1.0 | 0.00 | 9.51 | 0.00 | 88 | 1011.9 |
| 20260503201939 | 71 | 21 | 0.0 | 1.0 | 0.00 | 9.59 | 0.00 | 88 | 1012.0 |
| 20260503201920 | 71 | 30 | 0.0 | 1.0 | 0.00 | 9.59 | 0.00 | 88 | 1012.0 |
| 20260503201438 | 71 | 2 | 0.0 | 2.0 | 0.00 | 9.73 | 0.00 | 88 | 1012.0 |
| 20260503201410 | 71 | 360 | 0.0 | 2.0 | 0.00 | 9.75 | 0.00 | 88 | 1012.0 |
| 20260503200939 | 71 | 38 | 1.0 | 3.0 | 0.00 | 9.79 | 0.00 | 88 | 1012.0 |
| 20260503200900 | 71 | 47 | 2.0 | 3.0 | 0.00 | 9.81 | 0.00 | 88 | 1012.0 |
| 20260503200439 | 71 | 55 | 1.0 | 2.0 | 0.00 | 9.87 | 0.00 | 88 | 1012.1 |
| 20260503200350 | 71 | 42 | 1.0 | 3.0 | 0.00 | 9.88 | 0.00 | 89 | 1012.1 |
| 20260503195939 | 71 | 45 | 1.0 | 3.0 | 0.00 | 9.98 | 0.00 | 89 | 1012.0 |
| 20260503195840 | 71 | 43 | 1.0 | 2.0 | 0.00 | 9.99 | 0.00 | 89 | 1012.0 |
| 20260503195438 | 70 | 24 | 0.0 | 2.0 | 0.00 | 0.03 | 0.00 | 89 | 1011.9 |
| 20260503195330 | 70 | 46 | 0.0 | 2.0 | 0.00 | 0.06 | 0.00 | 89 | 1011.9 |
| 20260503194939 | 70 | 43 | 0.0 | 1.0 | 0.00 | 0.11 | 0.00 | 89 | 1011.9 |
| 20260503194820 | 70 | 31 | 1.0 | 1.0 | 0.00 | 0.12 | 0.00 | 89 | 1011.9 |
| 20260503194439 | 70 | 76 | 0.0 | 3.0 | 0.00 | 0.20 | 0.00 | 89 | 1012.1 |
| 20260503194310 | 70 | 201 | 0.0 | 3.0 | 0.00 | 0.22 | 0.00 | 89 | 1012.2 |
| 20260503193938 | 70 | 128 | 0.0 | 4.0 | 0.00 | 0.26 | 0.00 | 90 | 1012.2 |
| 20260503193800 | 70 | 98 | 3.0 | 4.0 | 0.00 | 0.28 | 0.00 | 90 | 1012.2 |
| 20260503193438 | 70 | 79 | 0.0 | 4.0 | 0.00 | 0.38 | 0.00 | 90 | 1012.3 |
| 20260503193250 | 70 | 87 | 1.0 | 4.0 | 0.00 | 0.42 | 0.00 | 90 | 1012.3 |
| 20260503192939 | 70 | 182 | 2.0 | 3.0 | 0.00 | 0.45 | 0.00 | 90 | 1012.3 |
| 20260503192438 | 70 | 148 | 1.0 | 2.0 | 0.00 | 0.51 | 0.00 | 90 | 1012.2 |
| 20260503192230 | 70 | 197 | 0.0 | 3.0 | 0.00 | 0.52 | 0.00 | 90 | 1012.2 |
| 20260503191939 | 70 | 218 | 1.0 | 3.0 | 0.00 | 0.54 | 0.00 | 90 | 1012.2 |
| 20260503191720 | 70 | 181 | 1.0 | 2.0 | 0.00 | 0.61 | 0.00 | 90 | 1012.2 |
| 20260503191439 | 71 | 213 | 1.0 | 1.0 | 0.00 | 0.64 | 0.00 | 91 | 1012.2 |
| 20260503191209 | 71 | 219 | 0.0 | 1.0 | 0.00 | 0.66 | 0.00 | 91 | 1012.2 |
| 20260503190938 | 71 | 196 | 0.0 | 1.0 | 0.00 | 0.66 | 0.00 | 91 | 1012.2 |
| 20260503190700 | 71 | 232 | 0.0 | 1.0 | 0.00 | 0.72 | 0.00 | 91 | 1012.2 |
| 20260503190439 | 71 | 65 | 1.0 | 1.0 | 0.00 | 0.74 | 0.00 | 91 | 1012.2 |
| 20260503190150 | 71 | 56 | 0.0 | 1.0 | 0.00 | 0.80 | 0.00 | 91 | 1012.3 |
| 20260503185938 | 71 | 150 | 0.0 | 1.0 | 0.00 | 0.80 | 0.00 | 91 | 1012.3 |
| 20260503185640 | 71 | 133 | 0.0 | 0.0 | 0.00 | 0.85 | 0.00 | 91 | 1012.3 |
| 20260503185438 | 71 | 52 | 0.0 | 1.0 | 0.00 | 0.87 | 0.00 | 91 | 1012.2 |
| 20260503185130 | 71 | 23 | 0.0 | 1.0 | 0.00 | 0.90 | 0.00 | 91 | 1012.4 |
| 20260503184939 | 71 | 10 | 0.0 | 1.0 | 0.00 | 0.96 | 0.00 | 91 | 1012.3 |
| 20260503184619 | 71 | 28 | 0.0 | 1.0 | 0.00 | 1.01 | 0.00 | 91 | 1012.3 |
| 20260503184438 | 71 | 59 | 0.0 | 1.0 | 0.00 | 1.03 | 0.00 | 91 | 1012.3 |
| 20260503184110 | 71 | 50 | 0.0 | 1.0 | 0.00 | 1.11 | 0.00 | 91 | 1012.3 |
| 20260503183938 | 71 | 48 | 0.0 | 1.0 | 0.00 | 1.11 | 0.00 | 91 | 1012.3 |
| 20260503183559 | 72 | 2 | 0.0 | 1.0 | 0.00 | 1.14 | 0.00 | 91 | 1012.4 |
| 20260503183438 | 72 | 39 | 0.0 | 1.0 | 0.00 | 1.16 | 0.00 | 91 | 1012.4 |
| 20260503183049 | 72 | 52 | 0.0 | 1.0 | 0.00 | 1.23 | 0.00 | 91 | 1012.5 |
| 20260503182938 | 72 | 65 | 0.0 | 1.0 | 0.00 | 1.24 | 0.00 | 91 | 1012.4 |
| 20260503182540 | 72 | 182 | 0.0 | 1.0 | 0.00 | 1.31 | 0.00 | 91 | 1012.4 |
| 20260503182438 | 72 | 194 | 0.0 | 0.0 | 0.00 | 1.35 | 0.00 | 91 | 1012.5 |
| 20260503182030 | 72 | 58 | 0.0 | 1.0 | 0.00 | 1.42 | 0.00 | 91 | 1012.6 |
| 20260503181938 | 72 | 59 | 0.0 | 1.0 | 0.00 | 1.44 | 0.00 | 91 | 1012.6 |
| 20260503181519 | 72 | 53 | 0.0 | 1.0 | 0.00 | 1.57 | 0.00 | 91 | 1012.7 |
| 20260503181438 | 72 | 35 | 0.0 | 1.0 | 0.00 | 1.57 | 0.00 | 91 | 1012.7 |
| 20260503181010 | 72 | 42 | 0.0 | 1.0 | 0.00 | 1.69 | 0.00 | 91 | 1012.8 |
| 20260503180938 | 72 | 37 | 0.0 | 1.0 | 0.00 | 1.69 | 0.00 | 91 | 1012.8 |
| 20260503180438 | 72 | 167 | 0.0 | 1.0 | 0.00 | 1.78 | 0.00 | 91 | 1013.0 |
| 20260503175949 | 72 | 297 | 0.0 | 0.0 | 0.00 | 1.90 | 0.00 | 91 | 1013.1 |
| 20260503175938 | 72 | 303 | 0.0 | 0.0 | 0.00 | 1.90 | 0.00 | 91 | 1013.1 |
| 20260503175441 | 72 | 300 | 0.0 | 0.0 | 0.00 | 2.01 | 0.00 | 91 | 1013.1 |
| 20260503175438 | 72 | 299 | 0.0 | 0.0 | 0.00 | 2.01 | 0.00 | 91 | 1013.1 |
| 20260503174929 | 72 | 73 | 0.0 | 1.0 | 0.00 | 2.11 | 0.00 | 91 | 1013.2 |
| 20260503174438 | 72 | 44 | 1.0 | 1.0 | 0.00 | 2.16 | 0.00 | 91 | 1013.3 |
| 20260503174419 | 72 | 46 | 1.0 | 1.0 | 0.00 | 2.20 | 0.00 | 91 | 1013.3 |
| 20260503173937 | 72 | 115 | 0.0 | 1.0 | 0.00 | 2.30 | 0.00 | 91 | 1013.3 |
| 20260503173909 | 72 | 195 | 0.0 | 1.0 | 0.00 | 2.33 | 0.00 | 91 | 1013.3 |
| 20260503173437 | 72 | 238 | 0.0 | 0.0 | 0.00 | 2.38 | 0.00 | 91 | 1013.4 |
| 20260503173359 | 72 | 249 | 0.0 | 0.0 | 0.00 | 2.43 | 0.00 | 91 | 1013.4 |
| 20260503172938 | 72 | 247 | 0.0 | 1.0 | 0.00 | 2.55 | 0.00 | 91 | 1013.5 |
| 20260503172849 | 72 | 247 | 0.0 | 1.0 | 0.00 | 2.55 | 0.00 | 91 | 1013.6 |
| 20260503172438 | 72 | 210 | 1.0 | 2.0 | 0.00 | 2.64 | 0.00 | 91 | 1013.6 |
| 20260503172339 | 72 | 220 | 1.0 | 2.0 | 0.00 | 2.70 | 0.00 | 91 | 1013.6 |
| 20260503171937 | 71 | 230 | 1.0 | 2.0 | 0.00 | 2.77 | 0.00 | 91 | 1013.7 |
| 20260503171829 | 71 | 240 | 1.0 | 2.0 | 0.00 | 2.83 | 0.00 | 91 | 1013.7 |
| 20260503171437 | 71 | 21 | 0.0 | 0.0 | 0.00 | 2.87 | 0.00 | 91 | 1013.8 |
| 20260503171319 | 71 | 19 | 0.0 | 0.0 | 0.00 | 2.93 | 0.00 | 91 | 1013.8 |
| 20260503170938 | 71 | 20 | 0.0 | 0.0 | 0.00 | 2.98 | 0.00 | 91 | 1013.9 |
| 20260503170809 | 71 | 19 | 0.0 | 0.0 | 0.00 | 3.01 | 0.00 | 91 | 1013.9 |
| 20260503170437 | 71 | 19 | 0.0 | 1.0 | 0.00 | 3.07 | 0.00 | 91 | 1014.0 |
| 20260503150937 | 72 | 283 | 1.0 | 6.0 | 0.00 | 5.76 | 0.00 | 91 | 1014.2 |
| 20260503150918 | 72 | 274 | 1.0 | 6.0 | 0.00 | 5.76 | 0.00 | 91 | 1014.2 |
| 20260503150436 | 72 | 296 | 0.0 | 10.0 | 0.00 | 5.88 | 0.00 | 91 | 1013.9 |
| 20260503150407 | 72 | 322 | 0.0 | 10.0 | 0.00 | 5.90 | 0.00 | 91 | 1014.0 |
| 20260503140208 | 73 | 201 | 1.0 | 4.0 | 0.00 | 6.99 | 0.00 | 92 | 1014.3 |
| 20260503131027 | 73 | 223 | 1.0 | 4.0 | 0.00 | 8.04 | 0.00 | 92 | 1013.8 |
| 20260503130937 | 73 | 260 | 0.0 | 4.0 | 0.00 | 8.07 | 0.00 | 92 | 1013.8 |
| 20260503130516 | 73 | 315 | 0.0 | 5.0 | 0.00 | 8.20 | 0.00 | 92 | 1013.7 |
| 20260503130435 | 73 | 58 | 2.0 | 5.0 | 0.00 | 8.20 | 0.00 | 92 | 1013.7 |
| 20260503110625 | 73 | 360 | 0.0 | 1.0 | 0.00 | 0.22 | 0.00 | 92 | 1012.1 |
| 20260503110435 | 73 | 316 | 0.0 | 4.0 | 0.00 | 0.24 | 0.00 | 92 | 1012.0 |
| 20260503110116 | 73 | 183 | 2.0 | 4.0 | 0.00 | 0.25 | 0.00 | 92 | 1012.0 |
| 20260503090432 | 73 | 278 | 1.0 | 7.0 | 0.03 | 2.12 | 0.00 | 91 | 1010.3 |
| 20260503090225 | 73 | 193 | 2.0 | 8.0 | 0.03 | 2.16 | 0.00 | 91 | 1010.2 |
| 20260503081554 | 73 | 159 | 5.0 | 9.0 | 0.05 | 2.98 | 0.00 | 91 | 1010.0 |
| 20260503081433 | 73 | 152 | 3.0 | 5.0 | 0.05 | 2.99 | 0.00 | 91 | 1010.0 |
| 20260503081045 | 73 | 30 | 1.0 | 5.0 | 0.07 | 3.11 | 0.00 | 91 | 1009.9 |
| 20260503080933 | 73 | 38 | 1.0 | 5.0 | 0.07 | 3.11 | 0.00 | 91 | 1010.0 |
| 20260503080534 | 73 | 45 | 2.0 | 5.0 | 0.07 | 3.17 | 0.00 | 90 | 1010.1 |
| 20260503080433 | 73 | 21 | 2.0 | 5.0 | 0.07 | 3.17 | 0.00 | 90 | 1010.2 |
| 20260503072933 | 72 | 234 | 5.0 | 9.0 | 0.04 | 3.90 | 0.00 | 88 | 1010.6 |
| 20260503072924 | 72 | 239 | 5.0 | 9.0 | 0.04 | 3.90 | 0.00 | 88 | 1010.6 |
| 20260503072433 | 72 | 232 | 4.0 | 6.0 | 0.03 | 4.01 | 0.00 | 88 | 1010.5 |
| 20260503072415 | 72 | 242 | 4.0 | 6.0 | 0.03 | 4.01 | 0.00 | 88 | 1010.5 |
| 20260503071932 | 73 | 156 | 1.0 | 14.0 | 0.02 | 4.05 | 0.00 | 87 | 1010.4 |
| 20260503071904 | 73 | 60 | 3.0 | 18.0 | 0.02 | 4.05 | 0.00 | 87 | 1010.5 |
| 20260503071433 | 73 | 162 | 13.0 | 33.0 | 0.01 | 4.16 | 0.00 | 86 | 1011.1 |
| 20260503071354 | 74 | 169 | 20.0 | 33.0 | 0.00 | 4.16 | 0.00 | 86 | 1011.1 |
| 20260503070933 | 75 | 208 | 21.0 | 28.0 | 0.00 | 4.28 | 0.00 | 85 | 1011.3 |
| 20260503070844 | 75 | 218 | 11.0 | 18.0 | 0.00 | 4.29 | 0.00 | 86 | 1011.3 |
| 20260503070432 | 75 | 221 | 8.0 | 11.0 | 0.07 | 4.38 | 0.00 | 85 | 1010.7 |
| 20260503070335 | 75 | 216 | 7.0 | 10.0 | 0.07 | 4.38 | 0.00 | 85 | 1010.6 |
| 20260503060133 | 80 | 263 | 8.0 | 12.0 | 0.83 | 5.53 | 0.00 | 75 | 1010.5 |
| 20260503055114 | 81 | 29 | 7.0 | 22.0 | 0.77 | 5.57 | 0.00 | 73 | 1009.9 |
| 20260503054933 | 81 | 44 | 7.0 | 22.0 | 0.77 | 5.60 | 0.00 | 73 | 1010.1 |
| 20260503054603 | 81 | 90 | 5.0 | 13.0 | 0.80 | 5.70 | 0.00 | 73 | 1009.9 |
| 20260503054432 | 81 | 89 | 3.0 | 13.0 | 0.81 | 5.74 | 0.00 | 73 | 1009.9 |
| 20260503054054 | 81 | 39 | 6.0 | 16.0 | 0.81 | 5.75 | 0.00 | 74 | 1010.0 |
| 20260503053932 | 81 | 61 | 3.0 | 18.0 | 0.79 | 5.73 | 0.00 | 74 | 1010.1 |
| 20260503053544 | 81 | 67 | 10.0 | 20.0 | 0.79 | 5.74 | 0.00 | 73 | 1010.3 |
| 20260503053431 | 82 | 44 | 11.0 | 20.0 | 0.80 | 5.73 | 0.00 | 73 | 1010.3 |
| 20260503053033 | 83 | 36 | 8.0 | 16.0 | 0.81 | 5.74 | 0.00 | 72 | 1010.5 |
| 20260503052932 | 84 | 50 | 6.0 | 16.0 | 0.81 | 5.73 | 0.00 | 71 | 1010.6 |
| 20260503052524 | 86 | 15 | 6.0 | 12.0 | 0.88 | 5.81 | 0.00 | 70 | 1010.5 |
| 20260503052432 | 87 | 27 | 7.0 | 12.0 | 0.87 | 5.83 | 0.00 | 70 | 1010.6 |
| 20260503052013 | 86 | 282 | 4.0 | 9.0 | 0.90 | 5.86 | 0.00 | 70 | 1010.4 |
| 20260503051932 | 86 | 281 | 4.0 | 9.0 | 0.87 | 5.85 | 0.00 | 70 | 1010.4 |
| 20260503051503 | 87 | 260 | 6.0 | 8.0 | 0.94 | 5.86 | 0.00 | 70 | 1010.4 |
| 20260503051432 | 87 | 262 | 6.0 | 8.0 | 0.94 | 5.86 | 0.00 | 70 | 1010.5 |
| 20260503050931 | 86 | 218 | 5.0 | 8.0 | 0.99 | 5.91 | 0.00 | 70 | 1010.6 |
| 20260503050443 | 86 | 217 | 6.0 | 9.0 | 1.01 | 5.97 | 0.00 | 71 | 1010.7 |
| 20260503050432 | 86 | 231 | 6.0 | 9.0 | 1.01 | 5.97 | 0.00 | 71 | 1010.7 |
| 20260503045934 | 86 | 247 | 6.0 | 11.0 | 1.00 | 5.99 | 0.00 | 71 | 1010.7 |
| 20260503045931 | 86 | 249 | 6.0 | 11.0 | 1.00 | 5.99 | 0.00 | 71 | 1010.7 |
| 20260503045432 | 87 | 243 | 9.0 | 12.0 | 1.08 | 6.01 | 0.00 | 70 | 1010.8 |
| 20260503045423 | 87 | 250 | 9.0 | 12.0 | 1.08 | 6.01 | 0.00 | 70 | 1010.8 |
| 20260503044931 | 87 | 249 | 7.0 | 12.0 | 1.18 | 6.05 | 0.00 | 71 | 1010.8 |
| 20260503044913 | 87 | 237 | 8.0 | 12.0 | 1.18 | 6.04 | 0.00 | 71 | 1010.8 |
| 20260503044432 | 86 | 244 | 8.0 | 14.0 | 1.19 | 6.06 | 0.00 | 71 | 1010.9 |
| 20260503044403 | 86 | 247 | 7.0 | 14.0 | 1.19 | 6.10 | 0.00 | 71 | 1010.9 |
| 20260503043931 | 87 | 220 | 9.0 | 16.0 | 1.13 | 6.00 | 0.00 | 70 | 1010.9 |
| 20260503043853 | 87 | 218 | 8.0 | 16.0 | 1.13 | 5.99 | 0.00 | 70 | 1010.9 |
| 20260503043432 | 88 | 144 | 2.0 | 17.0 | 1.08 | 5.97 | 0.00 | 69 | 1011.0 |
| 20260503043343 | 88 | 106 | 3.0 | 17.0 | 1.09 | 5.98 | 0.00 | 69 | 1011.1 |
| 20260503042931 | 88 | 232 | 6.0 | 16.0 | 1.06 | 5.99 | 0.00 | 69 | 1011.0 |
| 20260503042832 | 88 | 201 | 9.0 | 16.0 | 1.05 | 6.00 | 0.00 | 68 | 1011.0 |
| 20260503042431 | 88 | 28 | 2.0 | 8.0 | 1.09 | 5.98 | 0.00 | 70 | 1011.1 |
| 20260503042323 | 87 | 138 | 2.0 | 9.0 | 1.11 | 5.99 | 0.00 | 69 | 1011.1 |
| 20260503041931 | 87 | 243 | 6.0 | 15.0 | 1.12 | 6.01 | 0.00 | 70 | 1011.3 |
| 20260503041812 | 87 | 203 | 7.0 | 15.0 | 1.13 | 5.96 | 0.00 | 70 | 1011.3 |
| 20260503041431 | 86 | 212 | 9.0 | 14.0 | 1.16 | 5.96 | 0.00 | 71 | 1011.4 |
| 20260503041303 | 86 | 217 | 6.0 | 11.0 | 1.15 | 5.92 | 0.00 | 71 | 1011.4 |
| 20260503040931 | 86 | 240 | 8.0 | 11.0 | 1.19 | 5.96 | 0.00 | 71 | 1011.4 |
| 20260503040753 | 86 | 244 | 7.0 | 11.0 | 1.15 | 5.94 | 0.00 | 71 | 1011.4 |
| 20260503040431 | 86 | 253 | 5.0 | 7.0 | 1.20 | 5.97 | 0.00 | 70 | 1011.5 |
| 20260503040242 | 86 | 262 | 2.0 | 6.0 | 1.20 | 5.99 | 0.00 | 71 | 1011.5 |
| 20260503035931 | 86 | 217 | 3.0 | 9.0 | 1.24 | 5.99 | 0.00 | 72 | 1011.5 |
| 20260503035733 | 85 | 241 | 5.0 | 10.0 | 1.19 | 6.00 | 0.00 | 72 | 1011.4 |
| 20260503035432 | 86 | 219 | 7.0 | 10.0 | 1.16 | 5.93 | 0.00 | 71 | 1011.5 |
| 20260503035222 | 85 | 259 | 4.0 | 7.0 | 1.15 | 5.92 | 0.00 | 72 | 1011.6 |
| 20260503034931 | 85 | 272 | 5.0 | 7.0 | 1.14 | 5.92 | 0.00 | 73 | 1011.6 |
| 20260503034713 | 85 | 215 | 4.0 | 9.0 | 1.14 | 5.97 | 0.00 | 73 | 1011.6 |
| 20260503034431 | 85 | 239 | 5.0 | 9.0 | 1.13 | 5.97 | 0.00 | 72 | 1011.7 |
| 20260503034202 | 85 | 239 | 7.0 | 9.0 | 1.21 | 6.04 | 0.00 | 72 | 1011.7 |
| 20260503033931 | 85 | 279 | 4.0 | 9.0 | 1.24 | 6.07 | 0.00 | 73 | 1011.8 |
| 20260503033653 | 84 | 246 | 6.0 | 9.0 | 1.27 | 6.13 | 0.00 | 73 | 1011.9 |
| 20260503033431 | 84 | 216 | 6.0 | 9.0 | 1.31 | 6.17 | 0.00 | 73 | 1011.8 |
| 20260503033142 | 84 | 272 | 2.0 | 9.0 | 1.33 | 6.18 | 0.00 | 73 | 1011.9 |
| 20260503032931 | 84 | 207 | 3.0 | 9.0 | 1.38 | 6.23 | 0.00 | 74 | 1011.9 |
| 20260503032632 | 84 | 234 | 5.0 | 10.0 | 1.40 | 6.18 | 0.00 | 74 | 1011.9 |
| 20260503032431 | 84 | 189 | 5.0 | 10.0 | 1.41 | 6.16 | 0.00 | 74 | 1012.0 |
| 20260503032123 | 83 | 230 | 6.0 | 9.0 | 1.42 | 6.16 | 0.00 | 74 | 1012.0 |
| 20260503031932 | 84 | 203 | 5.0 | 9.0 | 1.41 | 6.14 | 0.00 | 74 | 1012.0 |
| 20260503031612 | 83 | 220 | 5.0 | 9.0 | 1.41 | 6.11 | 0.00 | 74 | 1012.0 |
| 20260503031431 | 83 | 244 | 6.0 | 10.0 | 1.39 | 6.09 | 0.00 | 74 | 1011.9 |
| 20260503031102 | 83 | 237 | 5.0 | 10.0 | 1.40 | 6.13 | 0.00 | 74 | 1012.0 |
| 20260503030930 | 83 | 242 | 8.0 | 10.0 | 1.37 | 6.14 | 0.00 | 74 | 1012.0 |
| 20260503030552 | 83 | 296 | 6.0 | 13.0 | 1.35 | 6.17 | 0.00 | 75 | 1011.9 |
| 20260503030431 | 83 | 251 | 7.0 | 13.0 | 1.35 | 6.16 | 0.00 | 74 | 1011.9 |
| 20260503030042 | 83 | 267 | 8.0 | 13.0 | 1.35 | 6.16 | 0.00 | 75 | 1011.9 |
| 20260503025931 | 83 | 261 | 7.0 | 13.0 | 1.31 | 6.13 | 0.00 | 74 | 1011.9 |
| 20260503025532 | 83 | 199 | 6.0 | 12.0 | 1.39 | 6.14 | 0.00 | 74 | 1012.0 |
| 20260503025431 | 83 | 245 | 7.0 | 12.0 | 1.37 | 6.12 | 0.00 | 74 | 1012.0 |
| 20260503025022 | 83 | 248 | 9.0 | 14.0 | 1.32 | 6.18 | 0.00 | 74 | 1012.0 |
| 20260503024931 | 83 | 249 | 7.0 | 14.0 | 1.32 | 6.18 | 0.00 | 74 | 1012.0 |
| 20260503024512 | 83 | 249 | 4.0 | 10.0 | 1.32 | 6.26 | 0.00 | 74 | 1012.0 |
| 20260503024430 | 83 | 227 | 4.0 | 10.0 | 1.32 | 6.26 | 0.00 | 74 | 1012.2 |
| 20260503024002 | 83 | 254 | 6.0 | 10.0 | 1.27 | 6.20 | 0.00 | 73 | 1012.2 |
| 20260503023931 | 84 | 226 | 6.0 | 10.0 | 1.27 | 6.20 | 0.00 | 73 | 1012.2 |
| 20260503023452 | 83 | 264 | 7.0 | 10.0 | 1.27 | 6.18 | 0.00 | 74 | 1012.2 |
| 20260503023430 | 83 | 233 | 6.0 | 10.0 | 1.27 | 6.18 | 0.00 | 74 | 1012.3 |
| 20260503022942 | 83 | 204 | 5.0 | 16.0 | 1.24 | 6.13 | 0.00 | 74 | 1012.3 |
| 20260503022931 | 83 | 221 | 6.0 | 16.0 | 1.24 | 6.13 | 0.00 | 74 | 1012.3 |
| 20260503022432 | 83 | 236 | 12.0 | 16.0 | 1.19 | 6.09 | 0.00 | 74 | 1012.3 |
| 20260503022430 | 83 | 218 | 12.0 | 16.0 | 1.19 | 6.09 | 0.00 | 74 | 1012.3 |
| 20260503021931 | 83 | 216 | 11.0 | 17.0 | 1.16 | 6.06 | 0.00 | 75 | 1012.5 |
| 20260503021922 | 83 | 239 | 11.0 | 17.0 | 1.15 | 6.06 | 0.00 | 75 | 1012.4 |
| 20260503021431 | 82 | 246 | 6.0 | 10.0 | 1.11 | 6.00 | 0.00 | 75 | 1012.5 |
| 20260503021412 | 82 | 215 | 5.0 | 10.0 | 1.12 | 6.01 | 0.00 | 75 | 1012.5 |
| 20260503020930 | 83 | 264 | 6.0 | 10.0 | 1.11 | 6.07 | 0.00 | 76 | 1012.6 |
| 20260503020902 | 83 | 224 | 7.0 | 11.0 | 1.12 | 6.09 | 0.00 | 76 | 1012.6 |
| 20260503020431 | 82 | 232 | 8.0 | 11.0 | 1.09 | 6.10 | 0.00 | 76 | 1012.6 |
| 20260503020352 | 82 | 229 | 5.0 | 10.0 | 1.06 | 6.09 | 0.00 | 77 | 1012.6 |
| 20260503015930 | 82 | 224 | 6.0 | 11.0 | 1.13 | 6.16 | 0.00 | 76 | 1012.6 |
| 20260503015841 | 82 | 197 | 7.0 | 11.0 | 1.15 | 6.14 | 0.00 | 76 | 1012.6 |
| 20260503015431 | 82 | 203 | 5.0 | 11.0 | 1.14 | 6.07 | 0.00 | 76 | 1012.6 |
| 20260503014931 | 82 | 213 | 5.0 | 9.0 | 1.24 | 6.14 | 0.00 | 75 | 1012.6 |
| 20260503014821 | 83 | 151 | 6.0 | 9.0 | 1.26 | 6.16 | 0.00 | 75 | 1012.6 |
| 20260503014430 | 83 | 208 | 5.0 | 7.0 | 1.31 | 6.16 | 0.00 | 75 | 1012.4 |
| 20260503014312 | 83 | 252 | 3.0 | 7.0 | 1.29 | 6.13 | 0.00 | 75 | 1012.4 |
| 20260503013931 | 83 | 253 | 5.0 | 7.0 | 1.27 | 6.11 | 0.00 | 75 | 1012.3 |
| 20260503013801 | 83 | 231 | 3.0 | 6.0 | 1.27 | 6.12 | 0.00 | 76 | 1012.2 |
| 20260503013430 | 82 | 166 | 2.0 | 4.0 | 1.33 | 6.12 | 0.00 | 76 | 1012.1 |
| 20260503013251 | 82 | 222 | 3.0 | 4.0 | 1.34 | 6.12 | 0.00 | 76 | 1012.1 |
| 20260503012930 | 82 | 187 | 1.0 | 6.0 | 1.34 | 6.13 | 0.00 | 76 | 1012.1 |
| 20260503012742 | 82 | 241 | 3.0 | 6.0 | 1.32 | 6.11 | 0.00 | 76 | 1012.1 |
| 20260503012430 | 82 | 19 | 1.0 | 4.0 | 1.33 | 6.11 | 0.00 | 78 | 1012.1 |
| 20260503011930 | 81 | 173 | 2.0 | 4.0 | 1.38 | 6.17 | 0.00 | 79 | 1011.9 |
| 20260503011722 | 81 | 190 | 1.0 | 5.0 | 1.44 | 6.23 | 0.00 | 79 | 1012.0 |
| 20260503011431 | 81 | 213 | 2.0 | 9.0 | 1.53 | 6.26 | 0.00 | 78 | 1012.0 |
| 20260503011211 | 81 | 139 | 6.0 | 9.0 | 1.55 | 6.30 | 0.00 | 77 | 1012.0 |
| 20260503010930 | 82 | 156 | 5.0 | 7.0 | 1.55 | 6.26 | 0.00 | 76 | 1011.9 |
| 20260503010701 | 82 | 238 | 4.0 | 7.0 | 1.59 | 6.30 | 0.00 | 75 | 1011.8 |
| 20260503010430 | 83 | 213 | 3.0 | 7.0 | 1.58 | 6.33 | 0.00 | 76 | 1011.8 |
| 20260503010151 | 82 | 338 | 4.0 | 7.0 | 1.54 | 6.32 | 0.00 | 76 | 1011.8 |
| 20260503005929 | 83 | 238 | 2.0 | 4.0 | 1.51 | 6.33 | 0.00 | 75 | 1011.8 |
| 20260503005641 | 82 | 64 | 1.0 | 4.0 | 1.48 | 6.32 | 0.00 | 78 | 1011.8 |
| 20260503005430 | 82 | 272 | 2.0 | 4.0 | 1.41 | 6.29 | 0.00 | 79 | 1011.7 |
| 20260503005131 | 81 | 224 | 1.0 | 4.0 | 1.38 | 6.26 | 0.00 | 79 | 1011.6 |
| 20260503004929 | 81 | 168 | 1.0 | 5.0 | 1.32 | 6.22 | 0.00 | 80 | 1011.7 |
| 20260503004621 | 80 | 237 | 2.0 | 4.0 | 1.26 | 6.19 | 0.00 | 80 | 1011.6 |
| 20260503004430 | 80 | 213 | 1.0 | 4.0 | 1.24 | 6.20 | 0.00 | 80 | 1011.6 |
| 20260503004111 | 80 | 175 | 2.0 | 5.0 | 1.24 | 6.22 | 0.00 | 80 | 1011.6 |
| 20260503003930 | 80 | 205 | 2.0 | 5.0 | 1.21 | 6.25 | 0.00 | 81 | 1011.6 |
| 20260503003601 | 80 | 204 | 4.0 | 6.0 | 1.14 | 6.22 | 0.00 | 81 | 1011.6 |
| 20260503003430 | 80 | 197 | 4.0 | 6.0 | 1.07 | 6.18 | 0.00 | 81 | 1011.6 |
| 20260503003052 | 80 | 219 | 3.0 | 5.0 | 1.03 | 6.19 | 0.00 | 80 | 1011.5 |
| 20260503002930 | 80 | 245 | 3.0 | 5.0 | 1.02 | 6.19 | 0.00 | 81 | 1011.5 |
| 20260503002541 | 80 | 251 | 1.0 | 3.0 | 0.95 | 6.25 | 0.00 | 81 | 1011.3 |
| 20260503002428 | 80 | 184 | 1.0 | 5.0 | 0.90 | 6.24 | 0.00 | 81 | 1011.3 |
| 20260503002031 | 80 | 237 | 2.0 | 7.0 | 0.85 | 6.20 | 0.00 | 81 | 1011.4 |
| 20260503001930 | 80 | 154 | 3.0 | 7.0 | 0.86 | 6.20 | 0.00 | 80 | 1011.3 |
| 20260503001521 | 80 | 204 | 4.0 | 5.0 | 0.68 | 6.03 | 0.00 | 80 | 1011.3 |
| 20260503001429 | 80 | 185 | 3.0 | 5.0 | 0.67 | 6.05 | 0.00 | 80 | 1011.3 |
| 20260503001010 | 80 | 234 | 2.0 | 4.0 | 0.68 | 6.10 | 0.00 | 80 | 1011.2 |
| 20260503000929 | 80 | 170 | 1.0 | 5.0 | 0.63 | 6.07 | 0.00 | 80 | 1011.3 |
| 20260503000501 | 80 | 178 | 2.0 | 5.0 | 0.66 | 6.17 | 0.00 | 79 | 1011.3 |
| 20260503000430 | 80 | 170 | 2.0 | 4.0 | 0.67 | 6.19 | 0.00 | 79 | 1011.3 |
| 20260502235951 | 80 | 196 | 2.0 | 7.0 | 0.66 | 6.20 | 0.00 | 79 | 1011.3 |
| 20260502235930 | 80 | 231 | 2.0 | 7.0 | 0.64 | 6.22 | 0.00 | 79 | 1011.3 |
| 20260502235440 | 81 | 223 | 3.0 | 6.0 | 0.69 | 6.26 | 0.00 | 79 | 1011.1 |
| 20260502235429 | 81 | 265 | 3.0 | 6.0 | 0.70 | 6.26 | 0.00 | 79 | 1011.1 |